Wetterdaten: Mittwoch, 15.04.2015
Datum Zeit Temp. A. Feuchte A. Luftdruck Regen Wind Richtung Richtung Sonnenschein ET UV Solar Taupunkt Windchill Windben Empfang
15.04.2015 00:00 11,2 C 61 % 1024,4 hPa 0,0 l/m 0,0 km/h (0 Bft) S 179 0 min 0,000 mm 0,0 UV-I 0 W/m 4,0 C 11,2 C 0,0 km/h (0 Bft) 0,00 %
15.04.2015 00:15 11,2 C 61 % 1024,5 hPa 0,0 l/m 0,0 km/h (0 Bft) SW 216 0 min 0,000 mm 0,0 UV-I 0 W/m 4,0 C 11,2 C 0,0 km/h (0 Bft) 0,00 %
15.04.2015 00:30 10,8 C 61 % 1024,6 hPa 0,0 l/m 0,0 km/h (0 Bft) SW 228 0 min 0,000 mm 0,0 UV-I 0 W/m 3,6 C 10,8 C 0,0 km/h (0 Bft) 0,00 %
15.04.2015 00:45 10,7 C 61 % 1024,4 hPa 0,0 l/m 1,4 km/h (1 Bft) W-SW 251 0 min 0,000 mm 0,0 UV-I 0 W/m 3,5 C 10,7 C 4,0 km/h (1 Bft) 0,00 %
15.04.2015 01:00 10,9 C 60 % 1024,4 hPa 0,0 l/m 0,4 km/h (0 Bft) SW 219 0 min 0,000 mm 0,0 UV-I 0 W/m 3,4 C 10,9 C 4,0 km/h (1 Bft) 0,00 %
15.04.2015 01:15 10,7 C 60 % 1024,1 hPa 0,0 l/m 0,0 km/h (0 Bft) W-SW 251 0 min 0,000 mm 0,0 UV-I 0 W/m 3,3 C 10,7 C 0,0 km/h (0 Bft) 0,00 %
15.04.2015 01:30 10,6 C 60 % 1023,8 hPa 0,0 l/m 0,0 km/h (0 Bft) S 180 0 min 0,000 mm 0,0 UV-I 0 W/m 3,2 C 10,6 C 0,0 km/h (0 Bft) 0,00 %
15.04.2015 01:45 10,8 C 59 % 1023,6 hPa 0,0 l/m 0,0 km/h (0 Bft) S 182 0 min 0,000 mm 0,0 UV-I 0 W/m 3,1 C 10,8 C 0,0 km/h (0 Bft) 0,00 %
15.04.2015 02:00 10,9 C 59 % 1023,5 hPa 0,0 l/m 0,0 km/h (0 Bft) S 176 0 min 0,000 mm 0,0 UV-I 0 W/m 3,2 C 10,9 C 0,0 km/h (0 Bft) 0,00 %
15.04.2015 02:15 10,7 C 59 % 1023,5 hPa 0,0 l/m 0,0 km/h (0 Bft) S-SW 210 0 min 0,000 mm 0,0 UV-I 0 W/m 3,0 C 10,7 C 0,0 km/h (0 Bft) 0,00 %
15.04.2015 02:30 10,4 C 60 % 1023,6 hPa 0,0 l/m 0,0 km/h (0 Bft) S 179 0 min 0,000 mm 0,0 UV-I 0 W/m 3,0 C 10,4 C 0,0 km/h (0 Bft) 0,00 %
15.04.2015 02:45 10,3 C 59 % 1023,3 hPa 0,0 l/m 0,0 km/h (0 Bft) W-SW 252 0 min 0,000 mm 0,0 UV-I 0 W/m 2,6 C 10,3 C 0,0 km/h (0 Bft) 0,00 %
15.04.2015 03:00 10,4 C 60 % 1023,3 hPa 0,0 l/m 0,0 km/h (0 Bft) S-SW 193 0 min 0,000 mm 0,0 UV-I 0 W/m 3,0 C 10,4 C 0,0 km/h (0 Bft) 0,00 %
15.04.2015 03:15 10,4 C 60 % 1023,3 hPa 0,0 l/m 0,4 km/h (0 Bft) W-SW 256 0 min 0,000 mm 0,0 UV-I 0 W/m 3,0 C 10,4 C 4,0 km/h (1 Bft) 0,00 %
15.04.2015 03:30 10,3 C 60 % 1023,1 hPa 0,0 l/m 0,0 km/h (0 Bft) S-SW 197 0 min 0,000 mm 0,0 UV-I 0 W/m 2,9 C 10,3 C 0,0 km/h (0 Bft) 0,00 %
15.04.2015 03:45 10,1 C 60 % 1023,0 hPa 0,0 l/m 1,4 km/h (1 Bft) W-SW 251 0 min 0,000 mm 0,0 UV-I 0 W/m 2,7 C 10,1 C 4,0 km/h (1 Bft) 0,00 %
15.04.2015 04:00 10,0 C 60 % 1023,1 hPa 0,0 l/m 0,0 km/h (0 Bft) S-SW 213 0 min 0,000 mm 0,0 UV-I 0 W/m 2,6 C 10,0 C 0,0 km/h (0 Bft) 0,00 %
15.04.2015 04:15 9,8 C 61 % 1023,0 hPa 0,0 l/m 0,0 km/h (0 Bft) S-SW 198 0 min 0,000 mm 0,0 UV-I 0 W/m 2,6 C 9,8 C 0,0 km/h (0 Bft) 0,00 %
15.04.2015 04:30 9,4 C 63 % 1022,9 hPa 0,0 l/m 1,4 km/h (1 Bft) SW 228 0 min 0,000 mm 0,0 UV-I 0 W/m 2,7 C 9,4 C 4,0 km/h (1 Bft) 0,00 %
15.04.2015 04:45 9,3 C 62 % 1022,9 hPa 0,0 l/m 0,0 km/h (0 Bft) SW 217 0 min 0,000 mm 0,0 UV-I 0 W/m 2,4 C 9,3 C 0,0 km/h (0 Bft) 0,00 %
15.04.2015 05:00 9,2 C 63 % 1023,0 hPa 0,0 l/m 0,4 km/h (0 Bft) S-SW 213 0 min 0,000 mm 0,0 UV-I 0 W/m 2,5 C 9,2 C 4,0 km/h (1 Bft) 0,00 %
15.04.2015 05:15 9,0 C 63 % 1023,0 hPa 0,0 l/m 2,2 km/h (1 Bft) W-SW 255 0 min 0,000 mm 0,0 UV-I 0 W/m 2,3 C 9,0 C 4,0 km/h (1 Bft) 0,00 %
15.04.2015 05:30 9,1 C 62 % 1022,8 hPa 0,0 l/m 0,0 km/h (0 Bft) S 185 0 min 0,000 mm 0,0 UV-I 0 W/m 2,2 C 9,1 C 0,0 km/h (0 Bft) 0,00 %
15.04.2015 05:45 8,4 C 65 % 1022,7 hPa 0,0 l/m 0,0 km/h (0 Bft) S 181 0 min 0,000 mm 0,0 UV-I 0 W/m 2,2 C 8,4 C 0,0 km/h (0 Bft) 0,00 %
15.04.2015 06:00 8,1 C 66 % 1022,8 hPa 0,0 l/m 0,0 km/h (0 Bft) S 178 0 min 0,000 mm 0,0 UV-I 0 W/m 2,1 C 8,1 C 0,0 km/h (0 Bft) 0,00 %
15.04.2015 06:15 8,0 C 66 % 1022,8 hPa 0,0 l/m 0,0 km/h (0 Bft) S 176 0 min 0,000 mm 0,0 UV-I 2 W/m 2,0 C 8,0 C 0,0 km/h (0 Bft) 0,00 %
15.04.2015 06:30 8,7 C 63 % 1022,8 hPa 0,0 l/m 0,0 km/h (0 Bft) S 185 15 min 0,000 mm 0,0 UV-I 22 W/m 2,1 C 8,7 C 0,0 km/h (0 Bft) 0,00 %
15.04.2015 06:45 9,8 C 60 % 1022,5 hPa 0,0 l/m 0,0 km/h (0 Bft) S-SW 192 15 min 0,000 mm 0,0 UV-I 79 W/m 2,4 C 9,8 C 0,0 km/h (0 Bft) 0,00 %
15.04.2015 07:00 11,0 C 55 % 1022,5 hPa 0,0 l/m 0,0 km/h (0 Bft) S-SW 193 15 min 0,000 mm 1,0 UV-I 134 W/m 2,3 C 11,0 C 0,0 km/h (0 Bft) 0,00 %
15.04.2015 07:15 12,2 C 53 % 1022,3 hPa 0,0 l/m 0,0 km/h (0 Bft) SW 220 15 min 0,000 mm 1,0 UV-I 157 W/m 2,9 C 12,2 C 0,0 km/h (0 Bft) 0,00 %
15.04.2015 07:30 12,7 C 53 % 1022,2 hPa 0,0 l/m 0,4 km/h (0 Bft) SW 229 15 min 0,000 mm 1,0 UV-I 163 W/m 3,4 C 12,7 C 4,0 km/h (1 Bft) 0,00 %
15.04.2015 07:45 12,5 C 51 % 1022,2 hPa 0,0 l/m 8,3 km/h (2 Bft) W-SW 250 15 min 0,000 mm 1,0 UV-I 140 W/m 2,6 C 11,3 C 11,9 km/h (2 Bft) 0,00 %
15.04.2015 08:00 12,6 C 52 % 1022,3 hPa 0,0 l/m 3,2 km/h (1 Bft) S-SW 210 0 min 0,000 mm 1,0 UV-I 156 W/m 3,0 C 12,6 C 4,0 km/h (1 Bft) 0,00 %
15.04.2015 08:15 13,3 C 51 % 1022,3 hPa 0,0 l/m 4,0 km/h (1 Bft) SW 234 0 min 0,000 mm 1,0 UV-I 174 W/m 3,4 C 13,3 C 7,9 km/h (2 Bft) 0,00 %
15.04.2015 08:30 14,1 C 47 % 1022,1 hPa 0,0 l/m 0,0 km/h (0 Bft) SW 215 0 min 0,000 mm 2,0 UV-I 182 W/m 3,0 C 14,1 C 0,0 km/h (0 Bft) 0,00 %
15.04.2015 08:45 15,2 C 44 % 1021,8 hPa 0,0 l/m 2,2 km/h (1 Bft) SW 228 0 min 0,000 mm 2,0 UV-I 213 W/m 3,0 C 15,2 C 4,0 km/h (1 Bft) 0,00 %
15.04.2015 09:00 15,8 C 42 % 1021,7 hPa 0,0 l/m 0,0 km/h (0 Bft) S 179 0 min 0,000 mm 2,0 UV-I 237 W/m 2,9 C 15,8 C 0,0 km/h (0 Bft) 0,00 %
15.04.2015 09:15 15,8 C 46 % 1021,8 hPa 0,0 l/m 0,0 km/h (0 Bft) W-SW 256 0 min 0,000 mm 2,0 UV-I 261 W/m 4,2 C 15,8 C 0,0 km/h (0 Bft) 0,00 %
15.04.2015 09:30 16,1 C 46 % 1021,6 hPa 0,0 l/m 0,0 km/h (0 Bft) S-SW 201 15 min 0,000 mm 2,0 UV-I 287 W/m 4,5 C 16,1 C 0,0 km/h (0 Bft) 0,00 %
15.04.2015 09:45 16,7 C 44 % 1021,6 hPa 0,0 l/m 0,0 km/h (0 Bft) NW 309 0 min 0,000 mm 2,0 UV-I 281 W/m 4,4 C 16,7 C 0,0 km/h (0 Bft) 0,00 %
15.04.2015 10:00 17,5 C 41 % 1021,2 hPa 0,0 l/m 4,0 km/h (1 Bft) W 277 15 min 0,000 mm 3,0 UV-I 336 W/m 4,1 C 17,5 C 4,0 km/h (1 Bft) 0,00 %
15.04.2015 10:15 17,6 C 42 % 1021,3 hPa 0,0 l/m 4,3 km/h (1 Bft) W-NW 302 15 min 0,000 mm 3,0 UV-I 370 W/m 4,5 C 17,6 C 7,9 km/h (2 Bft) 0,00 %
15.04.2015 10:30 17,8 C 43 % 1021,2 hPa 0,0 l/m 6,5 km/h (2 Bft) W-SW 242 15 min 0,000 mm 4,0 UV-I 407 W/m 5,1 C 17,8 C 7,9 km/h (2 Bft) 0,00 %
15.04.2015 10:45 20,1 C 37 % 1020,6 hPa 0,0 l/m 2,9 km/h (1 Bft) W-NW 289 15 min 0,000 mm 4,0 UV-I 441 W/m 5,0 C 20,1 C 7,9 km/h (2 Bft) 0,00 %
15.04.2015 11:00 19,8 C 36 % 1020,6 hPa 0,0 l/m 0,0 km/h (0 Bft) S-SW 193 15 min 0,000 mm 4,0 UV-I 483 W/m 4,3 C 19,8 C 0,0 km/h (0 Bft) 0,00 %
15.04.2015 11:15 20,2 C 39 % 1020,0 hPa 0,0 l/m 0,0 km/h (0 Bft) S-SW 201 15 min 0,000 mm 4,0 UV-I 517 W/m 5,8 C 20,2 C 0,0 km/h (0 Bft) 0,00 %
15.04.2015 11:30 20,9 C 35 % 1019,6 hPa 0,0 l/m 0,4 km/h (0 Bft) S 190 15 min 0,000 mm 4,0 UV-I 555 W/m 4,9 C 20,9 C 4,0 km/h (1 Bft) 0,00 %
15.04.2015 11:45 21,1 C 35 % 1019,4 hPa 0,0 l/m 7,2 km/h (2 Bft) W-SW 251 15 min 0,000 mm 5,0 UV-I 586 W/m 5,0 C 20,8 C 11,9 km/h (2 Bft) 0,00 %
15.04.2015 12:00 21,5 C 33 % 1019,1 hPa 0,0 l/m 10,8 km/h (2 Bft) W-SW 255 15 min 0,000 mm 5,0 UV-I 638 W/m 4,5 C 20,1 C 11,9 km/h (2 Bft) 0,00 %
15.04.2015 12:15 21,4 C 32 % 1018,9 hPa 0,0 l/m 7,2 km/h (2 Bft) W-SW 255 15 min 0,000 mm 5,0 UV-I 672 W/m 4,0 C 21,1 C 11,9 km/h (2 Bft) 0,00 %
15.04.2015 12:30 21,5 C 30 % 1018,9 hPa 0,0 l/m 10,4 km/h (2 Bft) W 276 15 min 0,000 mm 5,0 UV-I 693 W/m 3,2 C 20,2 C 11,9 km/h (2 Bft) 0,00 %
15.04.2015 12:45 21,5 C 30 % 1018,5 hPa 0,0 l/m 5,4 km/h (1 Bft) W-SW 255 15 min 0,000 mm 5,0 UV-I 698 W/m 3,2 C 21,5 C 7,9 km/h (2 Bft) 0,00 %
15.04.2015 13:00 21,9 C 29 % 1018,3 hPa 0,0 l/m 0,4 km/h (0 Bft) O-SO 109 15 min 0,000 mm 5,0 UV-I 720 W/m 3,1 C 21,9 C 4,0 km/h (1 Bft) 0,00 %
15.04.2015 13:15 22,1 C 32 % 1018,1 hPa 0,0 l/m 2,2 km/h (1 Bft) S-SW 210 15 min 0,000 mm 5,0 UV-I 732 W/m 4,6 C 22,1 C 7,9 km/h (2 Bft) 0,00 %
15.04.2015 13:30 22,1 C 31 % 1017,8 hPa 0,0 l/m 2,2 km/h (1 Bft) W 270 15 min 0,000 mm 5,0 UV-I 754 W/m 4,2 C 22,1 C 4,0 km/h (1 Bft) 0,00 %
15.04.2015 13:45 22,9 C 26 % 1017,4 hPa 0,0 l/m 9,0 km/h (2 Bft) SW 231 15 min 0,000 mm 5,0 UV-I 761 W/m 2,4 C 22,1 C 11,9 km/h (2 Bft) 0,00 %
15.04.2015 14:00 22,6 C 27 % 1017,5 hPa 0,0 l/m 9,7 km/h (2 Bft) W-SW 256 15 min 0,000 mm 5,0 UV-I 769 W/m 2,7 C 21,6 C 15,8 km/h (3 Bft) 0,00 %
15.04.2015 14:15 23,4 C 27 % 1017,0 hPa 0,0 l/m 10,4 km/h (2 Bft) W-NW 293 15 min 0,000 mm 5,0 UV-I 779 W/m 3,3 C 22,3 C 11,9 km/h (2 Bft) 0,00 %
15.04.2015 14:30 23,5 C 23 % 1016,8 hPa 0,0 l/m 4,3 km/h (1 Bft) S 182 15 min 0,000 mm 2,0 UV-I 817 W/m 1,2 C 23,5 C 7,9 km/h (2 Bft) 0,00 %
15.04.2015 14:45 23,6 C 28 % 1016,7 hPa 0,0 l/m 4,7 km/h (1 Bft) SW 232 15 min 0,000 mm 2,0 UV-I 708 W/m 4,0 C 23,6 C 7,9 km/h (2 Bft) 0,00 %
15.04.2015 15:00 23,4 C 26 % 1016,5 hPa 0,0 l/m 0,0 km/h (0 Bft) S-SW 201 15 min 0,000 mm 2,0 UV-I 732 W/m 2,8 C 23,4 C 0,0 km/h (0 Bft) 0,00 %
15.04.2015 15:15 23,2 C 26 % 1016,4 hPa 0,0 l/m 5,4 km/h (1 Bft) W-SW 255 15 min 0,000 mm 2,0 UV-I 660 W/m 2,6 C 23,2 C 7,9 km/h (2 Bft) 0,00 %
15.04.2015 15:30 23,1 C 24 % 1016,1 hPa 0,0 l/m 6,5 km/h (2 Bft) NW 309 15 min 0,000 mm 2,0 UV-I 719 W/m 1,4 C 23,1 C 7,9 km/h (2 Bft) 0,00 %
15.04.2015 15:45 22,8 C 26 % 1016,0 hPa 0,0 l/m 3,2 km/h (1 Bft) W-NW 292 15 min 0,000 mm 2,0 UV-I 715 W/m 2,3 C 22,8 C 4,0 km/h (1 Bft) 0,00 %
15.04.2015 16:00 22,6 C 23 % 1015,8 hPa 0,0 l/m 4,7 km/h (1 Bft) W-SW 240 15 min 0,000 mm 2,0 UV-I 733 W/m 0,4 C 22,6 C 7,9 km/h (2 Bft) 0,00 %
15.04.2015 16:15 22,4 C 30 % 1015,6 hPa 0,0 l/m 5,4 km/h (1 Bft) W-SW 256 15 min 0,000 mm 2,0 UV-I 709 W/m 4,0 C 22,4 C 7,9 km/h (2 Bft) 0,00 %
15.04.2015 16:30 22,5 C 28 % 1015,4 hPa 0,0 l/m 0,4 km/h (0 Bft) W-SW 256 15 min 0,000 mm 2,0 UV-I 710 W/m 3,1 C 22,5 C 4,0 km/h (1 Bft) 0,00 %
15.04.2015 16:45 22,6 C 26 % 1015,1 hPa 0,0 l/m 3,2 km/h (1 Bft) W-SW 255 15 min 0,000 mm 1,0 UV-I 705 W/m 2,1 C 22,6 C 7,9 km/h (2 Bft) 0,00 %
15.04.2015 17:00 22,6 C 25 % 1014,9 hPa 0,0 l/m 0,7 km/h (0 Bft) SW 227 15 min 0,000 mm 1,0 UV-I 700 W/m 1,6 C 22,6 C 4,0 km/h (1 Bft) 0,00 %
15.04.2015 17:15 23,5 C 23 % 1014,6 hPa 0,0 l/m 0,0 km/h (0 Bft) S-SO 163 15 min 0,000 mm 1,0 UV-I 678 W/m 1,2 C 23,5 C 0,0 km/h (0 Bft) 0,00 %
15.04.2015 17:30 23,2 C 24 % 1014,3 hPa 0,0 l/m 0,4 km/h (0 Bft) W-SW 256 15 min 0,000 mm 1,0 UV-I 654 W/m 1,5 C 23,2 C 4,0 km/h (1 Bft) 0,00 %
15.04.2015 17:45 23,3 C 24 % 1014,2 hPa 0,0 l/m 0,0 km/h (0 Bft) S-SW 203 15 min 0,000 mm 1,0 UV-I 651 W/m 1,6 C 23,3 C 0,0 km/h (0 Bft) 0,00 %
15.04.2015 18:00 22,9 C 23 % 1014,1 hPa 0,0 l/m 0,0 km/h (0 Bft) SW 228 15 min 0,000 mm 1,0 UV-I 608 W/m 0,7 C 22,9 C 0,0 km/h (0 Bft) 0,00 %
15.04.2015 18:15 22,6 C 23 % 1014,1 hPa 0,0 l/m 1,8 km/h (1 Bft) W-SW 250 15 min 0,000 mm 1,0 UV-I 571 W/m 0,4 C 22,6 C 4,0 km/h (1 Bft) 0,00 %
15.04.2015 18:30 22,5 C 24 % 1013,9 hPa 0,0 l/m 0,0 km/h (0 Bft) S-SW 203 15 min 0,000 mm 1,0 UV-I 512 W/m 0,9 C 22,5 C 0,0 km/h (0 Bft) 0,00 %
15.04.2015 18:45 21,9 C 23 % 1013,9 hPa 0,0 l/m 0,0 km/h (0 Bft) SW 221 15 min 0,000 mm 1,0 UV-I 438 W/m -0,2 C 21,9 C 0,0 km/h (0 Bft) 0,00 %
15.04.2015 19:00 21,2 C 26 % 1013,8 hPa 0,0 l/m 0,4 km/h (0 Bft) W 267 15 min 0,000 mm 0,0 UV-I 357 W/m 0,9 C 21,2 C 4,0 km/h (1 Bft) 0,00 %
15.04.2015 19:15 20,5 C 30 % 1014,0 hPa 0,0 l/m 0,0 km/h (0 Bft) S-SW 199 15 min 0,000 mm 0,0 UV-I 227 W/m 2,3 C 20,5 C 0,0 km/h (0 Bft) 0,00 %
15.04.2015 19:30 19,5 C 33 % 1013,8 hPa 0,0 l/m 0,0 km/h (0 Bft) S 184 0 min 0,000 mm 0,0 UV-I 26 W/m 2,8 C 19,5 C 0,0 km/h (0 Bft) 0,00 %
15.04.2015 19:45 18,1 C 38 % 1014,1 hPa 0,0 l/m 0,0 km/h (0 Bft) S 179 0 min 0,000 mm 0,0 UV-I 6 W/m 3,6 C 18,1 C 0,0 km/h (0 Bft) 0,00 %
15.04.2015 20:00 17,4 C 38 % 1014,2 hPa 0,0 l/m 0,0 km/h (0 Bft) S 171 0 min 0,000 mm 0,0 UV-I 0 W/m 2,9 C 17,4 C 0,0 km/h (0 Bft) 0,00 %
15.04.2015 20:15 16,8 C 41 % 1014,3 hPa 0,0 l/m 0,0 km/h (0 Bft) S 181 0 min 0,000 mm 0,0 UV-I 0 W/m 3,5 C 16,8 C 0,0 km/h (0 Bft) 0,00 %
15.04.2015 20:30 15,7 C 44 % 1014,4 hPa 0,0 l/m 0,0 km/h (0 Bft) S-SW 193 0 min 0,000 mm 0,0 UV-I 0 W/m 3,5 C 15,7 C 0,0 km/h (0 Bft) 0,00 %
15.04.2015 20:45 15,1 C 45 % 1014,4 hPa 0,0 l/m 0,0 km/h (0 Bft) S-SW 193 0 min 0,000 mm 0,0 UV-I 0 W/m 3,3 C 15,1 C 0,0 km/h (0 Bft) 0,00 %
15.04.2015 21:00 14,8 C 47 % 1014,4 hPa 0,0 l/m 0,0 km/h (0 Bft) SW 222 0 min 0,000 mm 0,0 UV-I 0 W/m 3,6 C 14,8 C 0,0 km/h (0 Bft) 0,00 %
15.04.2015 21:15 13,9 C 54 % 1014,6 hPa 0,0 l/m 0,0 km/h (0 Bft) S 181 0 min 0,000 mm 0,0 UV-I 0 W/m 4,7 C 13,9 C 0,0 km/h (0 Bft) 0,00 %
15.04.2015 21:30 13,2 C 55 % 1014,7 hPa 0,0 l/m 0,0 km/h (0 Bft) S 184 0 min 0,000 mm 0,0 UV-I 0 W/m 4,4 C 13,2 C 0,0 km/h (0 Bft) 0,00 %
15.04.2015 21:45 12,9 C 53 % 1014,6 hPa 0,0 l/m 0,0 km/h (0 Bft) S 178 0 min 0,000 mm 0,0 UV-I 0 W/m 3,6 C 12,9 C 0,0 km/h (0 Bft) 0,00 %
15.04.2015 22:00 12,6 C 53 % 1014,7 hPa 0,0 l/m 0,0 km/h (0 Bft) S 182 0 min 0,000 mm 0,0 UV-I 0 W/m 3,3 C 12,6 C 0,0 km/h (0 Bft) 0,00 %
15.04.2015 22:15 12,7 C 53 % 1014,5 hPa 0,0 l/m 0,0 km/h (0 Bft) S-SW 193 0 min 0,000 mm 0,0 UV-I 0 W/m 3,4 C 12,7 C 0,0 km/h (0 Bft) 0,00 %
15.04.2015 22:30 12,3 C 53 % 1014,5 hPa 0,0 l/m 0,0 km/h (0 Bft) S 182 0 min 0,000 mm 0,0 UV-I 0 W/m 3,0 C 12,3 C 0,0 km/h (0 Bft) 0,00 %
15.04.2015 22:45 11,9 C 55 % 1014,6 hPa 0,0 l/m 0,0 km/h (0 Bft) S 173 0 min 0,000 mm 0,0 UV-I 0 W/m 3,2 C 11,9 C 0,0 km/h (0 Bft) 0,00 %
15.04.2015 23:00 11,5 C 57 % 1014,6 hPa 0,0 l/m 0,0 km/h (0 Bft) SW 214 0 min 0,000 mm 0,0 UV-I 0 W/m 3,3 C 11,5 C 0,0 km/h (0 Bft) 0,00 %
15.04.2015 23:15 11,1 C 56 % 1014,9 hPa 0,0 l/m 0,0 km/h (0 Bft) S-SW 201 0 min 0,000 mm 0,0 UV-I 0 W/m 2,7 C 11,1 C 0,0 km/h (0 Bft) 0,00 %
15.04.2015 23:30 11,1 C 57 % 1014,9 hPa 0,0 l/m 0,0 km/h (0 Bft) S-SW 200 0 min 0,000 mm 0,0 UV-I 0 W/m 2,9 C 11,1 C 0,0 km/h (0 Bft) 0,00 %
15.04.2015 23:45 11,1 C 55 % 1014,8 hPa 0,0 l/m 0,0 km/h (0 Bft) S 178 0 min 0,000 mm 0,0 UV-I 0 W/m 2,4 C 11,1 C 0,0 km/h (0 Bft) 0,00 %
_ Min-Zeit 06:15 14:30 19:00 - 00:00 - - - - - - 18:45 06:15 00:00 00:00
Minimum _ 8,0 C 23 % 1013,8 hPa - 0,0 km/h (0 Bft) - - - - - - -0,2 C 8,0 C 0,0 km/h (0 Bft) 0,00 %
_ Max-Zeit 14:45 06:00 00:30 00:00 12:00 - - 06:30 00:00 11:45 14:30 11:15 14:45 14:00 00:00
Maximum _ 23,6 C 66 % 1024,6 hPa 0,0 l/m 10,8 km/h
W-SW (2 Bft)
- - 15 min 0,000 mm 5,0 UV-I 817 W/m 5,8 C 23,6 C 15,8 km/h
W-SW (3 Bft)
0,00 %
Durchschnitt _ 16,0 C 45 % 1019,0 hPa #0,0 l/m 1,7 km/h (1 Bft) W-SW - #11:15 h #0,000 mm 2,6 UV-I 473 W/m 3,0 C 15,9 C 3,0 km/h (1 Bft) 0,00 %